CAPE
0 0 0 0 0 0 0 0 0 0 0 0 0 0 0 0 0 0 16 0 0 0 0 0 0 0 0 0 0 0 0 0 0 0 0 0 0 0 0 0 0 0 0 0
0 0 0 0 0 0 0 0 0 0 0 0 0 0 0 14 4 0 0 0 0 0 0 0 0 0 0 0 0 0 0 0 0 0 0 0 0 0 0 0 0 0 0 0
0 0 2 2 0 0 0 0 0 0 0 0 0 0 0 0 47 33 2 0 0 0 0 0 0 0 0 0 0 0 0 0 0 0 0 0 0 0 0 0 0 0 0 0
3 2 0 0 0 0 0 0 0 0 0 0 0 0 0 0 0 0 25 0 0 0 0 0 0 0 0 0 0 0 0 0 0 0 0 0 0 0 0 0 0 0 0 0
3 0 0 0 0 0 0 0 0 0 0 1 0 0 0 0 0 0 0 0 0 0 0 0 0 0 0 0 0 0 0 0 0 0 0 0 0 0 0 0 0 0 0 0
0 0 0 0 0 0 0 0 0 0 0 0 0 0 0 0 0 0 0 0 0 0 0 0 0 0 0 0 0 0 0 0 0 0 0 0 0 0 0 0 0 0 0 0
0 0 0 0 0 0 0 0 0 0 2 0 0 0 0 0 0 0 0 0 0 0 0 0 0 0 0 0 0 0 0 0 0 0 0 0 0 0 0 0 0 0 0 0
0 0 0 0 0 1 0 0 0 0 0 0 0 0 0 0 0 0 0 2 0 0 0 0 0 0 0 0 0 0 0 0 0 0 0 0 0 0 0 0 0 0 0 0
0 0 0 0 0 0 0 0 0 3 0 0 0 0 0 0 0 2 2 0 0 0 0 0 0 0 0 0 0 0 0 0 0 0 0 0 0 0 0 0 0 0 0 0
0 0 0 0 0 0 0 0 0 0 0 0 0 0 0 0 0 2 4 0 0 0 0 0 0 0 0 0 0 0 0 0 0 0 0 0 0 0 0 0 0 0 0 0
0 0 0 0 0 0 0 0 0 0 0 0 0 0 0 0 0 1 0 0 0 0 0 0 0 0 0 0 0 0 0 0 0 0 0 0 0 0 0 0 0 0 0 0
0 0 0 0 0 0 0 0 0 0 0 0 0 0 0 0 0 1 1 1 1 1 0 0 0 0 0 0 0 0 0 0 0 0 0 0 0 0 0 0 0 0 0 0
0 0 0 0 0 0 0 0 0 0 0 0 0 0 0 0 1 0 0 0 0 0 1 0 0 0 0 0 0 0 0 0 0 0 0 0 0 0 0 0 1 0 0 0
0 0 0 0 0 0 0 0 0 0 0 0 0 0 0 0 1 0 0 0 0 0 0 0 0 0 0 0 0 0 0 0 0 0 0 0 0 0 0 0 0 0 0 0
0 0 0 0 0 0 0 0 0 0 0 0 0 0 0 0 0 0 1 0 0 0 0 0 0 0 0 0 0 0 0 0 0 0 0 0 0 0 0 0 0 0 0 0
0 0 0 0 0 0 0 0 0 0 0 0 0 0 0 1 0 0 0 0 0 0 0 0 0 0 0 0 0 0 0 0 0 0 0 0 0 0 0 0 0 0 0 0
0 0 0 0 0 0 0 0 0 0 0 0 0 0 0 1 0 0 0 0 0 0 0 0 0 0 0 0 0 0 0 0 0 0 0 0 0 0 0 0 0 0 0 0
0 0 0 0 0 0 0 0 0 0 0 0 0 0 0 0 0 0 0 0 0 0 0 0 0 0 0 0 0 0 0 0 0 0 0 0 0 0 0 0 0 0 0 0
0 0 0 0 0 0 0 0 0 0 0 0 0 0 0 0 0 0 0 0 0 0 0 0 0 0 0 0 0 0 0 0 0 0 0 0 0 0 0 0 0 0 0 0
0 0 0 0 0 0 0 0 0 0 0 0 0 0 0 0 0 0 0 0 0 0 0 0 0 0 0 0 0 0 0 0 0 0 0 0 0 0 0 0 0 0 0 0
0 0 0 0 0 0 0 0 0 0 0 0 0 0 0 0 0 0 0 0 0 0 0 0 0 0 0 0 0 0 0 0 0 0 0 0 0 0 0 0 0 0 0 0
0 0 0 0 0 0 0 0 0 0 0 0 0 0 0 0 0 0 0 0 0 0 0 0 0 0 0 0 0 0 0 0 0 0 0 0 0 0 0 0 0 0 0 0
0 0 0 0 0 0 0 0 0 0 0 0 0 0 0 0 0 0 0 0 0 0 0 0 0 0 0 0 0 0 0 0 0 0 0 0 0 0 0 0 0 0 0 0
0 0 0 0 0 0 0 0 0 0 0 0 0 0 0 0 0 0 0 0 0 0 0 0 0 0 0 0 0 0 0 0 0 0 0 0 0 0 0 0 0 0 0 0
0 0 0 0 0 0 0 0 0 0 0 0 0 0 0 0 0 0 0 0 0 0 0 0 0 0 0 0 0 0 0 0 0 0 0 0 0 0 0 0 0 0 0 0
0 0 0 0 0 0 0 0 0 0 0 0 0 0 0 0 0 0 0 0 0 0 0 0 0 0 0 0 0 0 0 0 0 0 0 0 0 0 0 0 0 0 0 0
0 0 0 0 0 0 0 0 0 0 0 0 0 0 0 0 0 0 0 0 0 0 0 0 0 0 0 0 0 0 0 0 0 0 0 0 0 0 0 0 0 0 0 0
CIN
-0 -0 -0 -0 -0 -0 -0 -0 -0 -0 -0 -0 -0 -0 -0 -0 -0 -0 -148 -62 -0 -0 -0 -0 -0 -0 -0 -0 -0 -0 -0 -0 -0 -0 -0 -0 -0 -0 -0 -0 -0 -0 -0 -0
-0 -0 -0 -0 -0 -0 -0 -0 -0 -0 -0 -0 -0 -0 -0 -34 -56 -1 -13 -0 -0 -0 -0 -0 -0 -0 -0 -0 -0 -0 -0 -0 -0 -0 -0 -0 -0 -0 -0 -0 -0 -0 -0 -0
-0 -0 -10 -5 -0 -0 -0 -0 -0 -0 -0 -0 -0 -0 -0 -1 -58 -72 -49 -0 -0 -0 -0 -0 -0 -0 -0 -0 -0 -0 -0 -0 -0 -0 -0 -0 -0 -0 -0 -0 -0 -0 -0 -0
-3 -15 -1 -0 -0 -0 -0 -0 -0 -0 -0 -0 -0 -0 -0 -0 -0 -0 -124 -0 -0 -0 -0 -0 -0 -0 -0 -0 -0 -0 -0 -0 -0 -0 -0 -0 -0 -0 -0 -0 -0 -0 -0 -0
-4 -0 -0 -0 -0 -0 -0 -0 -0 -0 -0 -94 -0 -0 -0 -0 -0 -0 -0 -0 -0 -0 -0 -0 -0 -0 -0 -0 -0 -0 -0 -0 -0 -0 -0 -0 -0 -0 -0 -0 -0 -0 -0 -0
-0 -0 -0 -0 -0 -0 -0 -0 -0 -0 -0 -0 -0 -0 -0 -0 -0 -0 -0 -0 -0 -0 -0 -0 -0 -0 -0 -0 -0 -0 -0 -0 -0 -0 -0 -0 -0 -0 -0 -0 -0 -0 -0 -0
-0 -0 -0 -0 -0 -0 -0 -0 -0 -0 -17 -0 -0 -0 -0 -0 -0 -0 -0 -0 -0 -0 -0 -0 -0 -0 -0 -0 -0 -0 -0 -0 -0 -0 -0 -0 -0 -0 -0 -0 -0 -0 -0 -0
-0 -0 -0 -0 -0 -4 -0 -0 -0 -0 -0 -0 -0 -0 -0 -0 -0 -0 -0 -0 -0 -0 -0 -0 -0 -0 -0 -0 -0 -0 -0 -0 -0 -0 -0 -0 -0 -0 -0 -0 -0 -0 -0 -0
-0 -0 -0 -0 -0 -0 -0 -0 -0 -111 -28 -0 -0 -0 -0 -0 -0 -0 -0 -0 -0 -0 -0 -0 -0 -0 -0 -0 -0 -0 -0 -0 -0 -0 -0 -0 -0 -0 -0 -0 -0 -0 -0 -0
-0 -0 -0 -0 -0 -0 -0 -0 -0 -0 -0 -0 -0 -0 -0 -0 -0 -0 -0 -0 -0 -0 -0 -0 -0 -0 -0 -0 -0 -0 -0 -0 -0 -0 -0 -0 -0 -0 -0 -0 -0 -0 -0 -0
-0 -0 -0 -0 -0 -0 -0 -0 -0 -0 -0 -0 -0 -0 -0 -0 -0 -0 -0 -0 -0 -0 -0 -0 -0 -0 -0 -0 -0 -0 -0 -0 -0 -0 -0 -0 -0 -0 -0 -0 -0 -0 -0 -0
-0 -0 -0 -0 -0 -0 -0 -0 -9 -0 -0 -0 -0 -0 -0 -0 -0 -0 -0 -0 -0 -0 -0 -0 -0 -0 -0 -0 -0 -0 -0 -0 -0 -0 -0 -0 -0 -0 -0 -0 -0 -0 -0 -0
-0 -0 -0 -0 -0 -0 -0 -0 -0 -0 -0 -0 -0 -0 -0 -0 -0 -0 -0 -0 -0 -0 -0 -0 -0 -0 -0 -0 -0 -0 -0 -0 -0 -0 -0 -0 -0 -0 -0 -0 -0 -0 -0 -0
-0 -0 -0 -0 -0 -0 -0 -0 -0 -0 -0 -0 -0 -0 -0 -0 -0 -0 -0 -0 -0 -0 -0 -0 -0 -0 -0 -0 -0 -0 -0 -0 -0 -0 -0 -0 -0 -0 -0 -0 -0 -0 -0 -0
-0 -0 -0 -0 -0 -0 -0 -0 -0 -0 -0 -0 -0 -0 -0 -0 -0 -0 -0 -0 -0 -0 -0 -0 -0 -0 -0 -0 -0 -0 -0 -0 -0 -0 -0 -0 -0 -0 -0 -0 -0 -0 -0 -0
-0 -0 -0 -0 -0 -0 -0 -0 -0 -0 -0 -0 -0 -0 -0 -0 -0 -0 -0 -0 -0 -0 -0 -0 -0 -0 -0 -0 -0 -0 -0 -0 -0 -0 -0 -0 -0 -0 -0 -0 -0 -0 -0 -0
-0 -0 -0 -0 -0 -0 -0 -0 -0 -0 -0 -0 -0 -0 -0 -0 -0 -0 -0 -0 -0 -0 -0 -0 -0 -0 -0 -0 -0 -0 -0 -0 -0 -0 -0 -0 -0 -0 -0 -0 -0 -0 -0 -0
-0 -0 -0 -0 -0 -0 -0 -0 -0 -0 -0 -0 -0 -0 -0 -0 -0 -0 -0 -0 -0 -0 -0 -0 -0 -0 -0 -0 -0 -0 -0 -0 -0 -0 -0 -0 -0 -0 -0 -0 -0 -0 -0 -0
-0 -0 -0 -0 -0 -0 -0 -0 -0 -0 -0 -0 -0 -0 -0 -0 -0 -0 -0 -0 -0 -0 -0 -0 -0 -0 -0 -0 -0 -0 -0 -0 -0 -0 -0 -0 -0 -0 -0 -0 -0 -0 -0 -0
-0 -0 -0 -0 -0 -0 -0 -0 -0 -0 -0 -0 -0 -0 -0 -0 -0 -0 -0 -0 -0 -0 -0 -0 -0 -0 -0 -0 -0 -0 -0 -0 -0 -0 -0 -0 -0 -0 -0 -0 -0 -0 -0 -0
-0 -0 -0 -0 -0 -0 -0 -0 -0 -0 -0 -0 -0 -0 -0 -0 -0 -0 -0 -0 -0 -0 -0 -0 -0 -0 -0 -0 -0 -0 -0 -0 -0 -0 -0 -0 -0 -0 -0 -0 -0 -0 -0 -0
-0 -0 -0 -0 -0 -0 -0 -0 -0 -0 -0 -0 -0 -0 -0 -0 -0 -0 -0 -0 -0 -0 -0 -0 -0 -0 -0 -0 -0 -0 -0 -0 -0 -0 -0 -0 -0 -0 -0 -0 -0 -0 -0 -0
-0 -0 -0 -0 -0 -0 -0 -0 -0 -0 -0 -0 -0 -0 -0 -0 -0 -0 -0 -0 -0 -0 -0 -0 -0 -0 -0 -0 -0 -0 -0 -0 -0 -0 -0 -0 -0 -0 -0 -0 -0 -0 -0 -0
-0 -0 -0 -0 -0 -0 -0 -0 -0 -0 -0 -0 -0 -0 -0 -0 -0 -0 -0 -0 -0 -0 -0 -0 -0 -0 -0 -0 -0 -0 -0 -0 -0 -0 -0 -0 -0 -0 -0 -0 -0 -0 -0 -0
-0 -0 -0 -0 -0 -0 -0 -0 -0 -0 -0 -0 -0 -0 -0 -0 -0 -0 -0 -0 -0 -0 -0 -0 -0 -0 -0 -0 -0 -0 -0 -0 -0 -0 -0 -0 -0 -0 -0 -0 -0 -0 -0 -0
-0 -0 -0 -0 -0 -0 -0 -0 -0 -0 -0 -0 -0 -0 -0 -0 -0 -0 -0 -0 -0 -0 -0 -0 -0 -0 -0 -0 -0 -0 -0 -0 -0 -0 -0 -0 -0 -0 -0 -0 -0 -0 -0 -0
-0 -0 -0 -0 -0 -0 -0 -0 -0 -0 -0 -0 -0 -0 -0 -0 -0 -0 -0 -0 -0 -0 -0 -0 -0 -0 -0 -0 -0 -0 -0 -0 -0 -0 -0 -0 -0 -0 -0 -0 -0 -0 -0 -0
Wind_Speed
28 27 28 29 28 29 32 30 34 33 34 38 40 37 35 28 30 25 17 14 14 14 14 14 13 13 12 11 10 11 13 15 16 14 15 16 18 19 19 20 21 21 22 22
42 40 39 34 34 33 34 34 37 38 42 40 42 37 33 30 26 22 17 14 15 15 15 14 13 11 10 11 11 8 14 15 14 14 15 15 17 18 18 19 20 20 21 22
39 30 32 37 35 37 40 40 36 33 36 37 35 32 32 28 24 22 21 16 16 14 13 11 10 9 9 9 9 11 13 13 13 12 13 14 15 16 17 18 18 20 21 21
32 28 43 34 31 31 33 32 31 32 34 34 33 30 25 23 23 22 19 17 15 14 12 11 9 8 6 8 9 11 12 11 10 10 11 13 13 14 15 16 17 19 21 22
33 37 38 41 38 32 34 42 36 38 34 27 25 23 23 18 21 23 23 17 14 12 10 8 7 6 6 7 9 10 10 9 9 9 9 10 11 12 13 15 17 18 19 21
31 36 41 38 30 28 25 46 30 26 26 24 20 28 24 19 22 25 22 15 12 10 8 7 5 4 5 7 9 10 9 8 8 8 8 8 8 10 12 14 16 17 19 20
35 37 38 36 31 31 39 41 31 22 19 17 22 23 24 23 24 22 18 14 12 9 7 5 3 4 7 7 8 8 8 7 7 7 7 8 7 8 11 13 15 17 18 19
30 34 40 21 24 29 26 28 29 30 31 28 27 26 27 24 21 18 15 14 11 9 7 5 4 5 7 9 8 7 6 7 6 6 7 7 7 8 9 12 14 16 17 19
19 25 20 15 22 27 29 35 36 35 36 31 28 25 22 22 19 18 16 12 10 7 6 7 6 6 6 6 5 5 5 5 6 6 7 7 7 7 9 11 13 14 16 18
19 16 17 18 25 29 32 36 36 32 30 25 24 20 19 16 15 13 11 9 7 6 8 7 9 8 6 4 4 4 3 4 5 5 6 7 7 7 7 9 11 13 15 17
14 17 19 17 18 27 29 30 32 27 23 20 16 17 15 15 13 10 8 6 6 6 9 9 8 7 4 3 2 2 2 3 4 5 5 6 7 7 8 9 10 12 15 18
18 18 18 19 17 17 25 23 16 22 19 14 13 15 15 13 10 10 9 8 8 9 8 8 7 6 3 1 0 1 1 2 3 4 5 6 7 8 9 9 10 13 15 18
21 19 18 20 20 17 26 30 28 19 15 13 14 14 14 13 9 8 7 8 7 6 6 5 4 3 1 1 1 1 1 1 2 3 3 4 5 6 7 9 11 15 16 17
20 24 26 22 24 22 22 29 25 20 13 10 11 13 13 12 8 6 5 5 5 5 4 2 2 1 2 2 1 1 0 1 2 2 2 3 4 5 6 7 10 16 18 16
24 25 28 29 38 33 24 25 22 18 15 12 12 14 13 9 7 7 6 4 4 5 3 1 1 2 2 3 2 2 0 1 1 1 1 3 4 6 7 8 13 16 16 16
21 20 20 22 41 31 19 17 19 19 17 15 13 12 9 8 6 5 4 2 2 3 1 1 1 2 3 2 1 1 0 1 0 1 3 4 6 8 10 13 14 15 14 14
15 12 10 33 32 19 9 9 10 12 12 13 11 9 6 5 4 4 3 2 3 2 1 1 1 2 2 1 1 2 2 1 2 3 4 5 6 7 8 10 12 13 13 13
10 14 15 25 17 4 6 7 10 10 10 9 7 5 4 3 3 3 3 3 4 4 4 3 2 3 2 2 1 2 2 2 3 4 5 6 7 8 10 11 11 12 12 12
15 23 23 19 9 1 6 8 8 8 6 6 5 4 4 4 4 4 4 3 3 3 3 3 2 3 3 1 2 2 2 3 4 6 6 6 8 9 9 9 9 10 10 11
7 9 5 1 3 4 5 6 5 4 4 4 5 5 5 4 4 3 3 4 4 7 3 3 4 4 3 2 2 2 3 3 4 6 7 7 8 9 9 9 10 9 10 10
6 5 5 4 4 5 5 6 7 7 8 9 11 13 13 12 11 10 7 5 4 5 3 3 3 3 2 2 2 2 3 4 5 5 6 7 8 8 9 9 10 9 9 10
7 8 8 8 7 7 7 9 10 11 12 13 14 14 15 14 14 13 12 11 8 6 5 4 3 3 3 2 2 1 1 1 2 4 7 9 7 7 8 9 10 10 10 10
8 7 8 8 9 10 10 12 12 12 12 13 14 14 14 14 14 13 12 9 9 9 8 6 5 4 3 2 1 1 2 3 5 7 8 8 7 8 9 9 9 9 8 9
8 8 9 9 9 11 12 12 11 11 12 12 12 12 11 10 9 8 7 7 7 7 5 5 5 5 4 1 1 1 2 4 6 7 8 8 8 8 9 9 9 9 9 10
8 8 8 10 11 11 11 10 9 9 9 9 9 9 8 7 7 6 6 6 6 5 4 4 3 3 1 1 2 3 4 6 7 8 8 9 9 9 10 9 10 10 11 11
8 5 6 7 7 8 8 8 8 7 7 6 6 6 6 6 6 6 5 5 5 5 4 4 3 3 2 2 2 2 3 4 6 7 8 9 10 11 11 11 11 10 9 10
8 6 5 5 5 5 5 5 5 5 5 5 4 4 4 5 5 6 5 5 4 4 3 3 3 2 2 2 2 2 3 4 5 6 7 8 8 8 9 9 9 10 10 11
Wind_Direction
289 295 299 293 288 286 286 288 289 292 297 294 294 297 297 298 302 301 299 294 285 284 286 285 289 295 306 317 325 335 336 336 335 346 350 351 347 348 351 351 352 353 353 351
285 288 285 288 288 288 289 288 286 287 289 289 291 297 297 298 302 307 307 303 299 294 288 284 284 293 302 312 324 331 334 335 340 342 343 344 347 351 356 354 355 355 354 354
284 289 290 286 287 287 288 287 286 286 288 298 300 298 300 301 304 305 306 306 300 294 290 285 282 287 294 311 321 327 335 339 340 343 346 350 354 356 356 356 357 357 356 355
289 292 282 289 291 294 292 292 291 292 297 302 303 303 305 308 307 310 311 307 302 298 296 293 292 294 304 318 321 328 333 340 347 350 351 353 358 360 2 2 1 357 353 354
287 286 291 289 290 292 292 286 292 295 302 307 311 311 308 311 312 311 311 310 308 304 302 303 294 295 306 320 326 331 339 340 343 347 350 356 359 6 9 8 4 358 356 354
287 288 288 292 296 301 305 289 301 303 305 308 312 304 311 315 313 312 314 315 313 310 311 306 299 297 316 316 328 330 337 342 345 348 354 1 12 17 17 14 9 5 1 357
286 287 290 292 297 304 288 293 310 311 315 315 309 311 314 315 313 315 317 317 319 315 308 307 305 302 315 319 322 332 339 347 352 356 5 13 25 32 27 19 14 10 6 2
294 292 292 307 304 291 300 301 306 302 301 304 306 309 310 311 311 314 315 316 313 308 306 306 310 314 317 316 326 338 346 346 356 8 5 19 37 51 32 23 22 14 11 4
306 309 321 316 305 301 301 295 296 297 297 302 304 306 309 310 311 309 310 314 311 298 298 302 311 319 322 326 335 347 347 353 8 12 24 37 49 46 30 32 31 21 8 9
322 332 322 316 313 308 302 294 294 298 300 305 305 309 313 318 317 317 317 313 313 300 293 301 306 317 326 333 340 339 351 6 12 27 28 25 27 27 38 40 32 17 15 16
312 317 327 328 323 313 309 302 298 299 305 308 314 317 321 320 320 321 316 312 302 298 298 301 308 316 322 329 340 354 357 23 23 28 24 20 13 24 26 24 30 20 14 3
301 310 315 318 326 329 310 314 324 301 306 317 321 322 327 328 322 314 309 306 301 302 303 303 308 314 318 322 75 38 24 34 34 33 29 35 33 23 23 26 16 3 5 2
288 296 293 305 316 317 303 294 296 310 310 310 319 327 331 329 318 312 310 304 301 302 308 309 315 326 342 142 147 134 327 28 60 54 49 36 28 15 12 3 355 349 357 7
288 296 296 301 306 307 303 292 297 306 312 321 331 332 332 327 322 314 308 309 314 316 320 332 348 43 114 130 144 157 0 94 109 94 45 9 9 10 3 356 344 340 345 358
293 288 288 298 295 286 291 286 290 296 305 320 332 331 330 327 320 314 316 323 324 320 327 359 17 21 101 129 147 151 128 110 123 76 353 331 331 336 336 337 329 332 339 346
291 288 294 297 263 277 281 283 287 291 300 314 326 329 334 339 338 342 340 347 324 316 336 25 15 40 96 125 150 165 251 173 212 302 313 311 310 313 315 316 323 331 334 337
280 270 280 273 264 278 271 282 296 304 312 318 325 336 345 356 7 14 27 29 359 352 8 15 351 49 66 98 218 275 292 303 307 313 310 310 313 313 320 327 328 332 334 337
225 207 196 206 179 278 292 298 306 312 318 328 340 350 5 18 10 7 5 4 350 342 343 355 38 27 19 25 328 294 295 298 302 309 312 313 316 319 322 324 327 332 338 341
181 188 190 175 152 307 307 309 318 329 345 359 7 7 9 6 8 3 4 2 350 338 342 350 359 350 341 332 312 309 305 307 315 315 318 320 320 324 326 329 331 335 339 342
134 146 134 51 346 338 337 336 347 12 20 39 40 56 64 46 44 32 4 338 329 327 345 338 346 356 13 18 353 332 319 314 316 318 319 322 322 323 325 328 329 333 337 340
61 77 87 78 59 35 54 79 94 101 99 106 115 124 123 114 111 105 95 79 26 11 49 68 48 29 27 14 357 341 332 323 317 320 322 324 323 323 324 326 329 332 333 334
43 68 78 83 79 75 72 90 94 99 105 114 119 121 122 124 125 126 127 125 94 87 90 97 81 84 82 82 31 35 31 12 341 330 326 323 320 321 323 325 326 327 329 331
12 37 50 65 90 93 87 96 99 101 108 118 121 125 127 128 128 128 136 110 105 115 113 116 115 117 111 89 74 14 338 329 324 322 324 323 321 319 322 323 325 329 331 332
29 43 52 65 71 86 101 100 97 99 109 116 119 119 114 110 111 100 65 98 102 111 103 107 116 123 123 86 47 352 332 328 327 326 325 324 322 321 323 324 325 327 328 328
7 20 68 85 96 100 96 93 82 78 87 94 99 105 104 98 94 107 89 88 99 101 91 92 102 106 66 18 337 325 322 322 324 324 323 323 322 322 322 322 322 323 324 325
344 25 60 77 84 86 87 91 91 87 81 79 71 81 82 72 48 53 74 80 86 94 94 80 80 88 81 71 13 343 334 335 334 331 328 325 324 323 322 321 322 325 326 326
328 335 342 356 22 58 73 76 78 83 75 67 61 57 62 53 44 39 48 57 69 77 69 60 49 51 39 13 1 355 347 340 340 338 337 335 334 333 332 330 329 330 329 328